Regional Weather Roundup
Issued by NWS

Home | Current Version | Previous Version | Graphics & Text | Print | Product List | Glossary Off
Versions: 1 2 3 4 5 6 7 8 9 10 11 12 13 14 15 16 17 18 19 20 21 22 23 24 25 26 27 28 29 30 31 32 33 34 35 36 37 38 39 40 41 42 43 44 45 46 47 48 49 50

000
ASUS43 KTOP 291408
RWRKS

WEATHER ROUNDUP FOR KANSAS
NATIONAL WEATHER SERVICE GOODLAND KS
900 AM CDT MON MAY 29 2017

NOTE:  "FAIR" INDICATES FEW OR NO CLOUDS BELOW 12,000 FEET WITH NO
SIGNIFICANT WEATHER AND/OR OBSTRUCTIONS TO VISIBILITY.

KSZ001>006-013>018-027>032-041>047-291500-
NORTHWEST KANSAS

CITY           SKY/WX    TMP DP  RH WIND       PRES   REMARKS
GOODLAND       SUNNY     61  48  62 N17G23    30.18R
HAYS           SUNNY     65  51  60 NW13      30.10R
HILL CITY      SUNNY     65  50  58 NW16      30.12S
RUSSELL        SUNNY     64  50  60 NW13      30.07R
$$

KSZ061>065-074>080-084>089-291500-
SOUTHWEST KANSAS

CITY           SKY/WX    TMP DP  RH WIND       PRES   REMARKS
DODGE CITY     SUNNY     63  49  60 N8        30.14R
ELKHART          N/A     55  41  59 MISG        N/A
GARDEN CITY    SUNNY     65  47  52 N12       30.16R
GREAT BEND     SUNNY     66  51  58 NW13      30.09R
LIBERAL        CLOUDY    59  49  69 NW9       30.19R
PRATT          SUNNY     65  48  55 N10       30.10R
$$

KSZ066>073-081>083-090>101-291500-
SOUTHEAST KANSAS

CITY           SKY/WX    TMP DP  RH WIND       PRES   REMARKS
CHANUTE        SUNNY     72  50  45 W10       30.01S
COFFEYVILLE    SUNNY     71  60  68 VRB3      30.01R
HUTCHINSON     SUNNY     66  53  63 W6        30.06R
MEDICINE LODGE   N/A     68  49  50 N12       30.06S
NEWTON         SUNNY     69  52  54 N7        30.06R
PARSONS        SUNNY     69  55  60 NW12      30.03R
WICHITA INTL   MOSUNNY   70  52  52 NW8       30.04S
WICHITA JABRA  SUNNY     69  52  54 NW6       30.04R
WICHITA MCCONL SUNNY     69  49  49 N8        30.04S
WINFIELD       SUNNY     70  52  52 NW6       30.05F
$$

KSZ007>012-019>026-033>040-048>060-102>105-291500-
NORTHEAST KANSAS

CITY           SKY/WX    TMP DP  RH WIND       PRES   REMARKS
CONCORDIA      SUNNY     63  52  67 N14       30.04R
EMPORIA        SUNNY     68  53  58 NW8       30.02R
LAWRENCE       SUNNY     68  54  60 NW12      29.98R
MANHATTAN      SUNNY     68  53  58 VRB3      30.02R
MARYSVILLE     SUNNY     64  52  63 N9        30.02R
OLATHE IND     MOSUNNY   66  53  63 NW14      29.98R
OLATHE EXE     MOSUNNY   67  54  63 NW12      29.96S
SALINA         SUNNY     68  53  58 NW12      30.04R
TOPEKA BILLARD SUNNY     68  54  60 NW9       29.99R
TOPEKA FORBES  SUNNY     69  53  56 NW13      29.99R
$$



USA.gov is the U.S. government's official web portal to all federal, state and local government web resources and services.